Location: ?????
(31.8092°N, 35.2590°E)
Time: 17:29:42
(UTC+00:00)

Cosmos 1908 - Pass Details

Date: 20 June 2021
Orbit: 509 x 530 km, 82.5° (Epoch: 02 August)

Event Time Altitude Azimuth Distance (km) Brightness Sun altitude
Rises 18:19:37 0° 5° (N) 2,653 7.4 -16.8°
Reaches altitude 10° 18:21:56 10° 16° (NNE) 1,757 6.2 -17.1°
Maximum altitude 18:25:24 31° 80° (E) 916 4.1 -17.7°
Enters shadow 18:25:38 31° 88° (E) 921 4.1 -17.7°
